Time,TemperatureF,DewpointF,PressureIn,WindDirection,WindDirectionDegrees,WindSpeedMPH,WindSpeedGustMPH,Humidity,HourlyPrecipIn,Conditions,Clouds,dailyrainin,SolarRadiationWatts/m^2,SoftwareType,DateUTC
2013-04-16 00:22:00,33.0,26.0,-100.00,SW,222,2.0,4.0,74,0.00,,,0.00,0.000000,,2013-04-16 08:22:00,
2013-04-16 00:32:00,33.0,26.0,-100.00,SW,222,2.0,4.0,74,0.00,,,0.00,0.000000,,2013-04-16 08:32:00,
2013-04-16 00:42:00,33.0,26.0,-100.00,SW,222,2.0,4.0,74,0.00,,,0.00,0.000000,,2013-04-16 08:42:00,
2013-04-16 00:51:00,33.0,26.0,-100.00,SW,222,2.0,4.0,74,0.00,,,0.00,0.000000,,2013-04-16 08:51:00,
2013-04-16 01:22:00,35.0,28.0,-100.00,South,176,3.0,6.0,74,0.00,,,0.00,0.000000,,2013-04-16 09:22:00,
2013-04-16 01:32:00,35.0,28.0,-100.00,South,176,3.0,6.0,74,0.00,,,0.00,0.000000,,2013-04-16 09:32:00,
2013-04-16 01:42:00,35.0,28.0,-100.00,South,176,3.0,6.0,74,0.00,,,0.00,0.000000,,2013-04-16 09:42:00,
2013-04-16 01:52:00,35.0,28.0,-100.00,South,176,3.0,6.0,74,0.00,,,0.00,0.000000,,2013-04-16 09:52:00,
2013-04-16 02:22:00,33.0,27.0,-100.00,ENE,62,0.0,5.0,77,0.00,,,0.00,0.000000,,2013-04-16 10:22:00,
2013-04-16 02:32:00,33.0,27.0,-100.00,ENE,62,0.0,5.0,77,0.00,,,0.00,0.000000,,2013-04-16 10:32:00,
2013-04-16 02:42:00,33.0,27.0,-100.00,ENE,62,0.0,5.0,77,0.00,,,0.00,0.000000,,2013-04-16 10:42:00,
2013-04-16 02:52:00,33.0,27.0,-100.00,ENE,62,0.0,5.0,77,0.00,,,0.00,0.000000,,2013-04-16 10:52:00,
2013-04-16 03:22:00,33.0,27.0,-100.00,West,259,1.0,2.0,79,0.00,,,0.00,0.000000,,2013-04-16 11:22:00,
2013-04-16 03:32:00,33.0,27.0,-100.00,West,259,1.0,2.0,79,0.00,,,0.00,0.000000,,2013-04-16 11:32:00,
2013-04-16 03:42:00,33.0,27.0,-100.00,West,259,1.0,2.0,79,0.00,,,0.00,0.000000,,2013-04-16 11:42:00,
2013-04-16 03:52:00,33.0,27.0,-100.00,West,259,1.0,2.0,79,0.00,,,0.00,0.000000,,2013-04-16 11:52:00,
2013-04-16 04:22:00,34.0,30.0,-100.00,South,187,2.0,3.0,84,0.00,,,0.00,0.000000,,2013-04-16 12:22:00,
2013-04-16 04:32:00,34.0,30.0,-100.00,South,187,2.0,3.0,84,0.00,,,0.00,0.000000,,2013-04-16 12:32:00,
2013-04-16 04:42:00,34.0,30.0,-100.00,South,187,2.0,3.0,84,0.00,,,0.00,0.000000,,2013-04-16 12:42:00,
2013-04-16 04:52:00,34.0,30.0,-100.00,South,187,2.0,3.0,84,0.00,,,0.00,0.000000,,2013-04-16 12:52:00,
2013-04-16 05:22:00,35.0,30.0,-100.00,SSW,199,1.0,3.0,82,0.00,,,0.00,0.000000,,2013-04-16 13:22:00,
2013-04-16 05:32:00,35.0,30.0,-100.00,SSW,199,1.0,3.0,82,0.00,,,0.00,0.000000,,2013-04-16 13:32:00,
2013-04-16 05:42:00,35.0,30.0,-100.00,SSW,199,1.0,3.0,82,0.00,,,0.00,0.000000,,2013-04-16 13:42:00,
2013-04-16 05:52:00,35.0,30.0,-100.00,SSW,199,1.0,3.0,82,0.00,,,0.00,0.000000,,2013-04-16 13:52:00,
2013-04-16 06:22:00,35.0,30.0,-100.00,SSW,197,1.0,4.0,83,0.00,,,0.00,1.000000,,2013-04-16 14:22:00,
2013-04-16 06:32:00,35.0,30.0,-100.00,SSW,197,1.0,4.0,83,0.00,,,0.00,1.000000,,2013-04-16 14:32:00,
2013-04-16 06:42:00,35.0,30.0,-100.00,SSW,197,1.0,4.0,83,0.00,,,0.00,1.000000,,2013-04-16 14:42:00,
2013-04-16 06:52:00,35.0,30.0,-100.00,SSW,197,1.0,4.0,83,0.00,,,0.00,1.000000,,2013-04-16 14:52:00,
2013-04-16 07:22:00,35.0,30.0,-100.00,SE,139,3.0,5.0,82,0.00,,,0.00,24.000000,,2013-04-16 15:22:00,
2013-04-16 07:32:00,35.0,30.0,-100.00,SE,139,3.0,5.0,82,0.00,,,0.00,24.000000,,2013-04-16 15:32:00,
2013-04-16 07:43:00,35.0,30.0,-100.00,SE,139,3.0,5.0,82,0.00,,,0.00,24.000000,,2013-04-16 15:43:00,
2013-04-16 07:52:00,35.0,30.0,-100.00,SE,139,3.0,5.0,82,0.00,,,0.00,24.000000,,2013-04-16 15:52:00,
2013-04-16 08:23:00,36.0,31.0,-100.00,South,174,2.0,5.0,81,0.00,,,0.00,69.000000,,2013-04-16 16:23:00,
2013-04-16 08:32:00,36.0,31.0,-100.00,South,174,2.0,5.0,81,0.00,,,0.00,69.000000,,2013-04-16 16:32:00,
2013-04-16 08:42:00,36.0,31.0,-100.00,South,174,2.0,5.0,81,0.00,,,0.00,69.000000,,2013-04-16 16:42:00,
2013-04-16 08:52:00,36.0,31.0,-100.00,South,174,2.0,5.0,81,0.00,,,0.00,69.000000,,2013-04-16 16:52:00,
2013-04-16 09:22:00,38.0,31.0,-100.00,SSE,157,4.0,6.0,75,0.00,,,0.00,119.000000,,2013-04-16 17:22:00,
2013-04-16 09:32:00,38.0,31.0,-100.00,SSE,157,4.0,6.0,75,0.00,,,0.00,119.000000,,2013-04-16 17:32:00,
2013-04-16 09:43:00,38.0,31.0,-100.00,SSE,157,4.0,6.0,75,0.00,,,0.00,119.000000,,2013-04-16 17:43:00,
2013-04-16 09:52:00,38.0,31.0,-100.00,SSE,157,4.0,6.0,75,0.00,,,0.00,119.000000,,2013-04-16 17:52:00,
2013-04-16 10:22:00,39.0,29.0,-100.00,SSE,163,7.0,12.0,67,0.00,,,0.00,160.000000,,2013-04-16 18:22:00,
2013-04-16 10:32:00,39.0,29.0,-100.00,SSE,163,7.0,12.0,67,0.00,,,0.00,160.000000,,2013-04-16 18:32:00,
2013-04-16 10:42:00,39.0,29.0,-100.00,SSE,163,7.0,12.0,67,0.00,,,0.00,160.000000,,2013-04-16 18:42:00,
2013-04-16 10:52:00,39.0,29.0,-100.00,SSE,163,7.0,12.0,67,0.00,,,0.00,160.000000,,2013-04-16 18:52:00,
2013-04-16 11:22:00,41.0,30.0,-100.00,SE,136,7.0,12.0,65,0.00,,,0.00,227.000000,,2013-04-16 19:22:00,
2013-04-16 11:32:00,41.0,30.0,-100.00,SE,136,7.0,12.0,65,0.00,,,0.00,227.000000,,2013-04-16 19:32:00,
2013-04-16 11:42:00,41.0,30.0,-100.00,SE,136,7.0,12.0,65,0.00,,,0.00,227.000000,,2013-04-16 19:42:00,
2013-04-16 11:52:00,41.0,30.0,-100.00,SE,136,7.0,12.0,65,0.00,,,0.00,227.000000,,2013-04-16 19:52:00,
2013-04-16 12:22:00,41.0,29.0,-100.00,South,178,6.0,16.0,63,0.00,,,0.00,213.000000,,2013-04-16 20:22:00,
2013-04-16 12:32:00,41.0,29.0,-100.00,South,178,6.0,16.0,63,0.00,,,0.00,213.000000,,2013-04-16 20:32:00,
2013-04-16 12:42:00,41.0,29.0,-100.00,South,178,6.0,16.0,63,0.00,,,0.00,213.000000,,2013-04-16 20:42:00,
2013-04-16 12:51:00,41.0,29.0,-100.00,South,178,6.0,16.0,63,0.00,,,0.00,213.000000,,2013-04-16 20:51:00,
2013-04-16 13:22:00,42.0,30.0,-100.00,South,178,8.0,14.0,63,0.00,,,0.00,252.000000,,2013-04-16 21:22:00,
2013-04-16 13:32:00,42.0,30.0,-100.00,South,178,8.0,14.0,63,0.00,,,0.00,252.000000,,2013-04-16 21:32:00,
2013-04-16 13:42:00,42.0,30.0,-100.00,South,178,8.0,14.0,63,0.00,,,0.00,252.000000,,2013-04-16 21:42:00,
2013-04-16 13:52:00,42.0,30.0,-100.00,South,178,8.0,14.0,63,0.00,,,0.00,252.000000,,2013-04-16 21:52:00,
2013-04-16 14:22:00,39.0,34.0,-100.00,South,170,6.0,16.0,81,0.00,,,0.00,243.000000,,2013-04-16 22:22:00,
2013-04-16 14:32:00,39.0,34.0,-100.00,South,170,6.0,16.0,81,0.00,,,0.00,243.000000,,2013-04-16 22:32:00,
2013-04-16 14:42:00,39.0,34.0,-100.00,South,170,6.0,16.0,81,0.00,,,0.00,243.000000,,2013-04-16 22:42:00,
2013-04-16 14:52:00,39.0,34.0,-100.00,South,170,6.0,16.0,81,0.00,,,0.00,243.000000,,2013-04-16 22:52:00,
2013-04-16 15:22:00,36.0,33.0,-100.00,South,178,6.0,11.0,88,0.04,,,0.04,123.000000,,2013-04-16 23:22:00,
2013-04-16 15:32:00,36.0,33.0,-100.00,South,178,6.0,11.0,88,0.04,,,0.04,123.000000,,2013-04-16 23:32:00,
2013-04-16 15:42:00,36.0,33.0,-100.00,South,178,6.0,11.0,88,0.04,,,0.04,123.000000,,2013-04-16 23:42:00,
2013-04-16 15:52:00,36.0,33.0,-100.00,South,178,6.0,11.0,88,0.04,,,0.04,123.000000,,2013-04-16 23:52:00,
2013-04-16 16:22:00,36.0,35.0,-100.00,South,176,5.0,11.0,96,0.04,,,0.08,110.000000,,2013-04-17 00:22:00,
2013-04-16 16:32:00,36.0,35.0,-100.00,South,176,5.0,11.0,96,0.04,,,0.08,110.000000,,2013-04-17 00:32:00,
2013-04-16 16:42:00,36.0,35.0,-100.00,South,176,5.0,11.0,96,0.04,,,0.08,110.000000,,2013-04-17 00:42:00,
2013-04-16 16:52:00,36.0,35.0,-100.00,South,176,5.0,11.0,96,0.04,,,0.08,110.000000,,2013-04-17 00:52:00,
2013-04-16 17:22:00,37.0,36.0,-100.00,SE,141,4.0,9.0,96,0.03,,,0.11,74.000000,,2013-04-17 01:22:00,
2013-04-16 17:32:00,37.0,36.0,-100.00,SE,141,4.0,9.0,96,0.03,,,0.11,74.000000,,2013-04-17 01:32:00,
2013-04-16 17:42:00,37.0,36.0,-100.00,SE,141,4.0,9.0,96,0.03,,,0.11,74.000000,,2013-04-17 01:42:00,
2013-04-16 17:52:00,37.0,36.0,-100.00,SE,141,4.0,9.0,96,0.03,,,0.11,74.000000,,2013-04-17 01:52:00,
2013-04-16 18:22:00,37.0,36.0,-100.00,SE,135,6.0,11.0,95,0.02,,,0.13,89.000000,,2013-04-17 02:22:00,
2013-04-16 18:32:00,37.0,36.0,-100.00,SE,135,6.0,11.0,95,0.02,,,0.13,89.000000,,2013-04-17 02:32:00,
2013-04-16 18:42:00,37.0,36.0,-100.00,SE,135,6.0,11.0,95,0.02,,,0.13,89.000000,,2013-04-17 02:42:00,
2013-04-16 18:52:00,37.0,36.0,-100.00,SE,135,6.0,11.0,95,0.02,,,0.13,89.000000,,2013-04-17 02:52:00,
2013-04-16 19:22:00,36.0,35.0,-100.00,ESE,123,7.0,12.0,96,0.00,,,0.13,29.000000,,2013-04-17 03:22:00,
2013-04-16 19:32:00,36.0,35.0,-100.00,ESE,123,7.0,12.0,96,0.00,,,0.13,29.000000,,2013-04-17 03:32:00,
2013-04-16 19:42:00,36.0,35.0,-100.00,ESE,123,7.0,12.0,96,0.00,,,0.13,29.000000,,2013-04-17 03:42:00,
2013-04-16 19:53:00,36.0,35.0,-100.00,ESE,123,7.0,12.0,96,0.00,,,0.13,29.000000,,2013-04-17 03:53:00,
2013-04-16 20:22:00,35.0,34.0,-100.00,SE,131,6.0,11.0,97,0.01,,,0.14,8.000000,,2013-04-17 04:22:00,
2013-04-16 20:33:00,35.0,34.0,-100.00,SE,131,6.0,11.0,97,0.01,,,0.14,8.000000,,2013-04-17 04:33:00,
2013-04-16 20:42:00,35.0,34.0,-100.00,SE,131,6.0,11.0,97,0.01,,,0.14,8.000000,,2013-04-17 04:42:00,
2013-04-16 20:52:00,35.0,34.0,-100.00,SE,131,6.0,11.0,97,0.01,,,0.14,8.000000,,2013-04-17 04:52:00,
2013-04-16 21:22:00,35.0,34.0,-100.00,SE,127,9.0,14.0,97,0.02,,,0.16,0.000000,,2013-04-17 05:22:00,
2013-04-16 21:32:00,35.0,34.0,-100.00,SE,127,9.0,14.0,97,0.02,,,0.16,0.000000,,2013-04-17 05:32:00,
2013-04-16 21:42:00,35.0,34.0,-100.00,SE,127,9.0,14.0,97,0.02,,,0.16,0.000000,,2013-04-17 05:42:00,
2013-04-16 21:52:00,35.0,34.0,-100.00,SE,127,9.0,14.0,97,0.02,,,0.16,0.000000,,2013-04-17 05:52:00,
2013-04-16 22:22:00,35.0,34.0,-100.00,SE,129,11.0,21.0,97,0.02,,,-99.99,0.000000,,2013-04-17 06:22:00,
2013-04-16 22:32:00,35.0,34.0,-100.00,SE,129,11.0,21.0,97,0.02,,,-99.99,0.000000,,2013-04-17 06:32:00,
2013-04-16 22:42:00,35.0,34.0,-100.00,SE,129,11.0,21.0,97,0.02,,,-99.99,0.000000,,2013-04-17 06:42:00,
2013-04-16 22:52:00,35.0,34.0,-100.00,SE,129,11.0,21.0,97,0.02,,,-99.99,0.000000,,2013-04-17 06:52:00,
2013-04-16 23:22:00,36.0,35.0,-100.00,SE,134,11.0,19.0,96,0.01,,,0.19,0.000000,,2013-04-17 07:22:00,
2013-04-16 23:32:00,36.0,35.0,-100.00,SE,134,11.0,19.0,96,0.01,,,0.19,0.000000,,2013-04-17 07:32:00,
2013-04-16 23:42:00,36.0,35.0,-100.00,SE,134,11.0,19.0,96,0.01,,,0.19,0.000000,,2013-04-17 07:42:00,
2013-04-16 23:52:00,36.0,35.0,-100.00,SE,134,11.0,19.0,96,0.01,,,0.19,0.000000,,2013-04-17 07:52:00,